| time (UTC) | temp F | wind direction | speed MPH | gust MPH | rain 1hr in | rain 24hr in | rain mn in | humidity % | barometer mb |
| 20260510065705 | 69 | 93 | 0.0 | 0.0 | 0.00 | 0.01 | 0.01 | 99 | 1065.4 |
| 20260510065205 | 69 | 93 | 0.0 | 0.0 | 0.00 | 0.01 | 0.01 | 99 | 1065.3 |
| 20260510064205 | 69 | 93 | 0.0 | 0.0 | 0.00 | 0.01 | 0.01 | 99 | 1065.4 |
| 20260510063205 | 69 | 93 | 0.0 | 0.0 | 0.00 | 0.01 | 0.01 | 99 | 1065.3 |
| 20260510062705 | 69 | 93 | 0.0 | 0.0 | 0.00 | 0.01 | 0.01 | 99 | 1065.3 |
| 20260510062205 | 69 | 93 | 0.0 | 0.0 | 0.00 | 0.01 | 0.01 | 99 | 1065.4 |
| 20260510061705 | 69 | 93 | 0.0 | 1.0 | 0.00 | 0.01 | 0.01 | 99 | 1065.3 |
| 20260510061205 | 69 | 98 | 0.0 | 2.0 | 0.00 | 0.01 | 0.01 | 99 | 1065.2 |
| 20260510060706 | 69 | 206 | 0.0 | 0.0 | 0.00 | 0.01 | 0.01 | 99 | 1065.2 |
| 20260510060205 | 69 | 206 | 0.0 | 0.0 | 0.00 | 0.01 | 0.01 | 99 | 1065.2 |
| 20260510055705 | 69 | 206 | 0.0 | 0.0 | 0.00 | 0.01 | 0.01 | 99 | 1065.2 |
| 20260510055205 | 69 | 206 | 0.0 | 0.0 | 0.00 | 0.01 | 0.01 | 99 | 1065.2 |
| 20260510054705 | 69 | 206 | 0.0 | 0.0 | 0.00 | 0.01 | 0.01 | 99 | 1065.3 |
| 20260510053705 | 69 | 206 | 0.0 | 0.0 | 0.00 | 0.01 | 0.01 | 99 | 1065.3 |
| 20260510053205 | 69 | 148 | 0.0 | 1.0 | 0.00 | 0.01 | 0.01 | 99 | 1065.3 |
| 20260510052705 | 69 | 82 | 0.0 | 0.0 | 0.00 | 0.01 | 0.01 | 99 | 1065.3 |
| 20260510052205 | 69 | 82 | 0.0 | 1.0 | 0.00 | 0.01 | 0.01 | 99 | 1065.4 |
| 20260510051705 | 69 | 87 | 0.0 | 0.0 | 0.00 | 0.01 | 0.01 | 99 | 1065.4 |
| 20260510051204 | 69 | 87 | 0.0 | 1.0 | 0.00 | 0.01 | 0.01 | 99 | 1065.5 |
| 20260510050705 | 69 | 84 | 0.0 | 0.0 | 0.00 | 0.01 | 0.01 | 99 | 1065.5 |
| 20260510045704 | 69 | 92 | 0.0 | 0.0 | 0.00 | 0.01 | 0.01 | 99 | 1065.7 |
| 20260510045205 | 69 | 92 | 0.0 | 0.0 | 0.00 | 0.01 | 0.01 | 99 | 1065.8 |
| 20260510044204 | 69 | 94 | 0.0 | 0.0 | 0.00 | 0.01 | 0.01 | 99 | 1065.8 |
| 20260510043705 | 69 | 94 | 0.0 | 0.0 | 0.00 | 0.01 | 0.01 | 99 | 1065.8 |
| 20260510043205 | 69 | 94 | 0.0 | 0.0 | 0.00 | 0.01 | 0.01 | 99 | 1065.9 |
| 20260510042705 | 69 | 94 | 0.0 | 0.0 | 0.00 | 0.01 | 0.01 | 99 | 1065.9 |
| 20260510042205 | 69 | 94 | 0.0 | 0.0 | 0.00 | 0.01 | 0.01 | 99 | 1065.8 |
| 20260510041705 | 69 | 94 | 0.0 | 0.0 | 0.00 | 0.01 | 0.01 | 99 | 1065.7 |
| 20260510041205 | 69 | 94 | 0.0 | 0.0 | 0.00 | 0.01 | 0.01 | 99 | 1065.7 |
| 20260510040706 | 69 | 94 | 0.0 | 2.0 | 0.00 | 0.01 | 0.01 | 99 | 1065.6 |
| 20260510040205 | 69 | 114 | 0.0 | 2.0 | 0.00 | 0.01 | 0.01 | 99 | 1065.6 |
| 20260510035705 | 69 | 87 | 0.0 | 1.0 | 0.00 | 0.01 | 0.01 | 99 | 1065.6 |
| 20260510033205 | 69 | 79 | 0.0 | 1.0 | 0.00 | 0.01 | 0.01 | 100 | 1064.1 |
| 20260510032705 | 69 | 81 | 1.0 | 1.0 | 0.00 | 0.01 | 0.01 | 100 | 1063.8 |
| 20260510032206 | 69 | 76 | 0.0 | 0.0 | 0.00 | 0.01 | 0.01 | 100 | 1063.4 |
| 20260510031705 | 69 | 76 | 0.0 | 0.0 | 0.00 | 0.01 | 0.01 | 99 | 1063.1 |
| 20260510031205 | 69 | 76 | 0.0 | 0.0 | 0.00 | 0.01 | 0.01 | 99 | 1063.2 |
| 20260510030705 | 69 | 76 | 0.0 | 0.0 | 0.00 | 0.01 | 0.01 | 99 | 1063.1 |
| 20260510025706 | 69 | 76 | 1.0 | 2.0 | 0.00 | 0.01 | 0.01 | 99 | 1063.1 |
| 20260510024705 | 69 | 319 | 0.0 | 0.0 | 0.00 | 0.01 | 0.01 | 100 | 1063.9 |
| 20260510024205 | 69 | 325 | 0.0 | 2.0 | 0.00 | 0.01 | 0.01 | 100 | 1064.2 |
| 20260510023705 | 69 | 97 | 0.0 | 1.0 | 0.00 | 0.01 | 0.01 | 99 | 1064.4 |
| 20260510023205 | 69 | 121 | 1.0 | 1.0 | 0.00 | 0.01 | 0.01 | 100 | 1064.6 |
| 20260510022705 | 69 | 320 | 0.0 | 0.0 | 0.00 | 0.01 | 0.01 | 100 | 1065.3 |
| 20260510022205 | 69 | 320 | 0.0 | 1.0 | 0.00 | 0.01 | 0.01 | 100 | 1065.8 |
| 20260510021705 | 69 | 98 | 1.0 | 2.0 | 0.00 | 0.01 | 0.01 | 99 | 1066.0 |
| 20260510021205 | 68 | 14 | 0.0 | 1.0 | 0.00 | 0.01 | 0.01 | 99 | 1065.3 |
| 20260510020705 | 68 | 103 | 1.0 | 2.0 | 0.00 | 0.01 | 0.01 | 99 | 1065.1 |
| 20260510015705 | 68 | 77 | 0.0 | 2.0 | 0.00 | 0.01 | 0.01 | 99 | 1065.0 |
| 20260510015206 | 68 | 79 | 1.0 | 3.0 | 0.00 | 0.01 | 0.01 | 99 | 1064.6 |
| 20260510014705 | 68 | 80 | 1.0 | 2.0 | 0.00 | 0.01 | 0.01 | 99 | 1064.3 |
| 20260510013705 | 68 | 88 | 0.0 | 3.0 | 0.00 | 0.01 | 0.01 | 100 | 1063.9 |
| 20260510013205 | 68 | 118 | 1.0 | 2.0 | 0.00 | 0.01 | 0.01 | 100 | 1063.7 |
| 20260510012705 | 68 | 84 | 0.0 | 2.0 | 0.00 | 0.01 | 0.01 | 100 | 1064.0 |
| 20260510012205 | 68 | 121 | 1.0 | 2.0 | 0.00 | 0.01 | 0.01 | 100 | 1064.0 |
| 20260510011705 | 68 | 93 | 0.0 | 0.0 | 0.00 | 0.01 | 0.01 | 100 | 1064.2 |
| 20260510011205 | 68 | 93 | 0.0 | 0.0 | 0.00 | 0.01 | 0.01 | 100 | 1064.3 |
| 20260510010704 | 68 | 90 | 0.0 | 1.0 | 0.00 | 0.01 | 0.01 | 100 | 1064.3 |
| 20260510010205 | 68 | 88 | 0.0 | 1.0 | 0.00 | 0.01 | 0.01 | 100 | 1064.5 |
| 20260510005705 | 68 | 277 | 0.0 | 0.0 | 0.00 | 0.01 | 0.01 | 100 | 1064.6 |
| 20260510005205 | 68 | 277 | 0.0 | 0.0 | 0.00 | 0.01 | 0.01 | 100 | 1064.5 |
| 20260510004204 | 68 | 277 | 0.0 | 0.0 | 0.00 | 0.01 | 0.01 | 100 | 1064.4 |
| 20260510003705 | 68 | 277 | 0.0 | 0.0 | 0.00 | 0.01 | 0.01 | 100 | 1064.3 |
| 20260510003205 | 68 | 277 | 0.0 | 0.0 | 0.00 | 0.01 | 0.01 | 100 | 1064.3 |
| 20260510002705 | 68 | 277 | 0.0 | 0.0 | 0.00 | 0.01 | 0.01 | 100 | 1064.3 |
| 20260510001704 | 68 | 277 | 0.0 | 2.0 | 0.00 | 0.01 | 0.01 | 100 | 1064.1 |
| 20260510001205 | 68 | 257 | 1.0 | 3.0 | 0.00 | 0.01 | 0.01 | 100 | 1063.6 |
| 20260510000204 | 68 | 89 | 0.0 | 0.0 | 0.00 | 0.01 | 0.01 | 100 | 1063.3 |
| 20260509235705 | 68 | 89 | 0.0 | 0.0 | 0.00 | 0.01 | 0.01 | 100 | 1063.3 |
| 20260509235205 | 68 | 89 | 0.0 | 1.0 | 0.00 | 0.01 | 0.01 | 100 | 1063.5 |
| 20260509234705 | 68 | 96 | 1.0 | 2.0 | 0.00 | 0.01 | 0.01 | 100 | 1063.5 |
| 20260509234204 | 68 | 125 | 0.0 | 0.0 | 0.00 | 0.01 | 0.01 | 100 | 1063.8 |
| 20260509233205 | 68 | 44 | 0.0 | 1.0 | 0.00 | 0.01 | 0.01 | 100 | 1062.8 |
| 20260509232705 | 68 | 100 | 1.0 | 3.0 | 0.00 | 0.01 | 0.01 | 100 | 1062.6 |
| 20260509232205 | 68 | 108 | 0.0 | 2.0 | 0.00 | 0.01 | 0.01 | 100 | 1062.5 |
| 20260509231704 | 68 | 94 | 2.0 | 3.0 | 0.00 | 0.01 | 0.01 | 100 | 1062.4 |
| 20260509231205 | 68 | 127 | 1.0 | 3.0 | 0.00 | 0.01 | 0.01 | 100 | 1062.5 |
| 20260509230706 | 68 | 86 | 1.0 | 2.0 | 0.00 | 0.01 | 0.01 | 100 | 1063.0 |
| 20260509230205 | 68 | 110 | 2.0 | 2.0 | 0.00 | 0.01 | 0.01 | 100 | 1063.3 |
| 20260509225704 | 68 | 105 | 1.0 | 3.0 | 0.00 | 0.01 | 0.01 | 99 | 1063.6 |
| 20260509225205 | 68 | 123 | 1.0 | 2.0 | 0.00 | 0.01 | 0.01 | 99 | 1063.7 |
| 20260509224705 | 68 | 87 | 0.0 | 6.0 | 0.00 | 0.01 | 0.01 | 99 | 1063.2 |
| 20260509224205 | 68 | 296 | 0.0 | 3.0 | 0.00 | 0.01 | 0.01 | 100 | 1062.6 |
| 20260509223705 | 68 | 79 | 2.0 | 3.0 | 0.00 | 0.01 | 0.01 | 100 | 1062.2 |
| 20260509223205 | 68 | 43 | 2.0 | 3.0 | 0.00 | 0.01 | 0.01 | 100 | 1062.6 |
| 20260509222705 | 68 | 133 | 1.0 | 3.0 | 0.00 | 0.01 | 0.01 | 100 | 1063.1 |
| 20260509222205 | 68 | 87 | 1.0 | 2.0 | 0.00 | 0.01 | 0.01 | 100 | 1063.1 |
| 20260509221705 | 68 | 80 | 1.0 | 2.0 | 0.00 | 0.01 | 0.01 | 100 | 1063.0 |
| 20260509221205 | 68 | 89 | 1.0 | 2.0 | 0.00 | 0.01 | 0.01 | 100 | 1062.9 |
| 20260509220705 | 68 | 84 | 0.0 | 0.0 | 0.00 | 0.01 | 0.01 | 100 | 1062.8 |
| 20260509220204 | 68 | 84 | 0.0 | 1.0 | 0.00 | 0.01 | 0.01 | 99 | 1062.9 |
| 20260509215705 | 68 | 143 | 0.0 | 1.0 | 0.00 | 0.01 | 0.01 | 100 | 1063.0 |
| 20260509215204 | 68 | 99 | 1.0 | 1.0 | 0.00 | 0.01 | 0.01 | 100 | 1062.9 |
| 20260509214705 | 68 | 89 | 1.0 | 1.0 | 0.00 | 0.01 | 0.01 | 100 | 1062.9 |
| 20260509214204 | 68 | 90 | 1.0 | 2.0 | 0.00 | 0.01 | 0.01 | 100 | 1063.1 |
| 20260509213705 | 68 | 95 | 0.0 | 0.0 | 0.00 | 0.01 | 0.01 | 100 | 1063.3 |
| 20260509213204 | 68 | 104 | 0.0 | 1.0 | 0.00 | 0.01 | 0.01 | 100 | 1063.4 |
| 20260509212705 | 68 | 86 | 0.0 | 0.0 | 0.00 | 0.01 | 0.01 | 100 | 1063.6 |
| 20260509212204 | 68 | 86 | 0.0 | 2.0 | 0.00 | 0.01 | 0.01 | 100 | 1063.6 |
| 20260509211706 | 68 | 86 | 1.0 | 2.0 | 0.00 | 0.01 | 0.01 | 100 | 1063.4 |
| 20260509211204 | 68 | 73 | 1.0 | 2.0 | 0.00 | 0.01 | 0.01 | 100 | 1063.2 |
| 20260509210705 | 68 | 356 | 0.0 | 1.0 | 0.00 | 0.01 | 0.01 | 100 | 1063.0 |
| 20260509210204 | 68 | 333 | 0.0 | 2.0 | 0.00 | 0.01 | 0.01 | 100 | 1063.0 |
| 20260509205705 | 68 | 79 | 1.0 | 2.0 | 0.00 | 0.01 | 0.01 | 100 | 1063.3 |
| 20260509205204 | 68 | 91 | 0.0 | 2.0 | 0.00 | 0.01 | 0.01 | 100 | 1063.4 |
| 20260509204705 | 68 | 51 | 1.0 | 2.0 | 0.00 | 0.01 | 0.01 | 100 | 1063.0 |
| 20260509204204 | 68 | 75 | 1.0 | 1.0 | 0.00 | 0.01 | 0.01 | 100 | 1062.9 |
| 20260509202704 | 68 | 238 | 0.0 | 1.0 | 0.00 | 0.01 | 0.01 | 100 | 1063.3 |
| 20260509202204 | 68 | 230 | 0.0 | 2.0 | 0.00 | 0.01 | 0.01 | 100 | 1063.0 |
| 20260509201704 | 68 | 104 | 2.0 | 3.0 | 0.00 | 0.01 | 0.01 | 100 | 1062.9 |
| 20260509201204 | 68 | 100 | 1.0 | 2.0 | 0.00 | 0.01 | 0.01 | 100 | 1062.9 |
| 20260509200704 | 69 | 101 | 2.0 | 2.0 | 0.00 | 0.01 | 0.01 | 100 | 1063.4 |
| 20260509200205 | 69 | 133 | 2.0 | 3.0 | 0.00 | 0.01 | 0.01 | 100 | 1063.4 |
| 20260509195705 | 69 | 112 | 2.0 | 3.0 | 0.00 | 0.01 | 0.01 | 100 | 1063.5 |
| 20260509195205 | 69 | 105 | 1.0 | 2.0 | 0.00 | 0.01 | 0.01 | 100 | 1063.9 |
| 20260509194704 | 69 | 42 | 1.0 | 5.0 | 0.00 | 0.01 | 0.01 | 100 | 1063.8 |
| 20260509193204 | 69 | 332 | 1.0 | 5.0 | 0.00 | 0.01 | 0.01 | 100 | 1064.2 |
| 20260509192704 | 69 | 78 | 1.0 | 2.0 | 0.00 | 0.01 | 0.01 | 100 | 1064.5 |
| 20260509192205 | 69 | 95 | 2.0 | 6.0 | 0.00 | 0.01 | 0.01 | 100 | 1064.4 |
| 20260509191704 | 69 | 66 | 2.0 | 3.0 | 0.00 | 0.01 | 0.01 | 99 | 1064.6 |
| 20260509190705 | 69 | 102 | 3.0 | 6.0 | 0.00 | 0.01 | 0.01 | 100 | 1064.0 |
| 20260509190204 | 69 | 299 | 1.0 | 2.0 | 0.00 | 0.01 | 0.01 | 100 | 1064.8 |
| 20260509185704 | 69 | 93 | 0.0 | 2.0 | 0.00 | 0.01 | 0.01 | 100 | 1064.5 |
| 20260509185204 | 69 | 78 | 1.0 | 3.0 | 0.00 | 0.01 | 0.01 | 100 | 1064.5 |
| 20260509184704 | 70 | 114 | 1.0 | 2.0 | 0.00 | 0.01 | 0.01 | 100 | 1064.4 |
| 20260509184205 | 70 | 101 | 0.0 | 0.0 | 0.00 | 0.01 | 0.01 | 100 | 1064.9 |
| 20260509183704 | 70 | 101 | 1.0 | 3.0 | 0.00 | 0.01 | 0.01 | 100 | 1065.0 |
| 20260509183205 | 70 | 117 | 0.0 | 2.0 | 0.00 | 0.01 | 0.01 | 100 | 1064.9 |
| 20260509182706 | 70 | 119 | 0.0 | 0.0 | 0.00 | 0.01 | 0.01 | 100 | 1065.2 |
| 20260509181707 | 70 | 120 | 1.0 | 3.0 | 0.00 | 0.01 | 0.01 | 100 | 1065.0 |
| 20260509181206 | 69 | 88 | 0.0 | 1.0 | 0.00 | 0.01 | 0.01 | 100 | 1064.8 |
| 20260509180706 | 69 | 99 | 0.0 | 2.0 | 0.00 | 0.01 | 0.01 | 100 | 1064.7 |
| 20260509180206 | 69 | 123 | 1.0 | 2.0 | 0.00 | 0.01 | 0.01 | 100 | 1064.6 |
| 20260509175706 | 69 | 95 | 0.0 | 2.0 | 0.00 | 0.01 | 0.01 | 100 | 1064.9 |
| 20260509175207 | 69 | 109 | 0.0 | 1.0 | 0.00 | 0.01 | 0.01 | 100 | 1065.0 |
| 20260509174706 | 69 | 94 | 0.0 | 1.0 | 0.00 | 0.01 | 0.01 | 100 | 1065.0 |
| 20260509174206 | 69 | 94 | 0.0 | 1.0 | 0.00 | 0.01 | 0.01 | 100 | 1065.1 |
| 20260509173706 | 69 | 314 | 0.0 | 0.0 | 0.00 | 0.01 | 0.01 | 100 | 1065.1 |
| 20260509172706 | 69 | 73 | 1.0 | 3.0 | 0.00 | 0.01 | 0.01 | 100 | 1065.3 |
| 20260509172206 | 69 | 91 | 0.0 | 1.0 | 0.00 | 0.01 | 0.01 | 100 | 1065.0 |
| 20260509171707 | 69 | 92 | 0.0 | 1.0 | 0.00 | 0.01 | 0.01 | 100 | 1065.0 |
| 20260509171206 | 69 | 107 | 2.0 | 3.0 | 0.00 | 0.01 | 0.01 | 100 | 1065.3 |
| 20260509170706 | 69 | 73 | 1.0 | 3.0 | 0.00 | 0.01 | 0.01 | 100 | 1065.3 |
| 20260509170206 | 69 | 97 | 1.0 | 2.0 | 0.00 | 0.01 | 0.01 | 100 | 1065.1 |
| 20260509165706 | 69 | 5 | 0.0 | 1.0 | 0.00 | 0.01 | 0.01 | 100 | 1065.3 |
| 20260509165206 | 69 | 18 | 0.0 | 0.0 | 0.00 | 0.01 | 0.01 | 100 | 1065.5 |
| 20260509164706 | 69 | 18 | 0.0 | 2.0 | 0.00 | 0.01 | 0.01 | 100 | 1065.3 |
| 20260509164206 | 69 | 91 | 1.0 | 3.0 | 0.00 | 0.01 | 0.01 | 100 | 1065.3 |
| 20260509163706 | 69 | 95 | 1.0 | 2.0 | 0.00 | 0.01 | 0.01 | 100 | 1065.3 |
| 20260509163206 | 69 | 76 | 1.0 | 2.0 | 0.00 | 0.01 | 0.01 | 100 | 1065.3 |
| 20260509162707 | 68 | 266 | 1.0 | 2.0 | 0.00 | 0.01 | 0.01 | 100 | 1065.4 |
| 20260509162206 | 68 | 79 | 1.0 | 2.0 | 0.00 | 0.01 | 0.01 | 100 | 1065.3 |
| 20260509161707 | 68 | 20 | 2.0 | 2.0 | 0.00 | 0.01 | 0.01 | 100 | 1065.3 |
| 20260509161206 | 68 | 120 | 2.0 | 2.0 | 0.00 | 0.01 | 0.01 | 99 | 1065.3 |
| 20260509160706 | 68 | 195 | 2.0 | 2.0 | 0.00 | 0.01 | 0.01 | 99 | 1065.2 |
| 20260509160206 | 68 | 341 | 1.0 | 2.0 | 0.00 | 0.01 | 0.01 | 100 | 1065.1 |
| 20260509155706 | 68 | 52 | 1.0 | 2.0 | 0.00 | 0.01 | 0.01 | 100 | 1065.2 |
| 20260509155206 | 68 | 260 | 2.0 | 3.0 | 0.00 | 0.01 | 0.01 | 99 | 1065.4 |
| 20260509154706 | 68 | 125 | 2.0 | 3.0 | 0.00 | 0.01 | 0.01 | 100 | 1065.6 |
| 20260509154206 | 68 | 79 | 2.0 | 2.0 | 0.00 | 0.01 | 0.01 | 100 | 1065.4 |
| 20260509153706 | 68 | 33 | 2.0 | 2.0 | 0.00 | 0.01 | 0.01 | 100 | 1065.2 |
| 20260509153207 | 68 | 82 | 1.0 | 2.0 | 0.00 | 0.01 | 0.01 | 100 | 1065.3 |
| 20260509152706 | 68 | 271 | 1.0 | 2.0 | 0.00 | 0.01 | 0.01 | 100 | 1065.2 |
| 20260509152206 | 68 | 257 | 1.0 | 2.0 | 0.00 | 0.01 | 0.01 | 100 | 1065.4 |
| 20260509151707 | 68 | 255 | 2.0 | 2.0 | 0.00 | 0.01 | 0.01 | 99 | 1065.6 |
| 20260509150705 | 68 | 351 | 2.0 | 2.0 | 0.00 | 0.01 | 0.01 | 100 | 1065.5 |
| 20260509150207 | 68 | 240 | 2.0 | 2.0 | 0.00 | 0.01 | 0.01 | 100 | 1065.2 |
| 20260509145706 | 68 | 246 | 2.0 | 2.0 | 0.00 | 0.01 | 0.01 | 100 | 1064.8 |
| 20260509145206 | 68 | 237 | 2.0 | 2.0 | 0.00 | 0.01 | 0.01 | 100 | 1064.8 |
| 20260509143706 | 67 | 85 | 2.0 | 2.0 | 0.00 | 0.01 | 0.01 | 100 | 1064.5 |
| 20260509143206 | 67 | 234 | 1.0 | 2.0 | 0.00 | 0.01 | 0.01 | 100 | 1064.4 |
| 20260509142706 | 67 | 65 | 1.0 | 2.0 | 0.00 | 0.01 | 0.01 | 100 | 1064.3 |
| 20260509141706 | 67 | 75 | 1.0 | 2.0 | 0.00 | 0.01 | 0.01 | 100 | 1064.4 |
| 20260509141205 | 67 | 99 | 1.0 | 2.0 | 0.00 | 0.01 | 0.01 | 100 | 1064.3 |
| 20260509140706 | 67 | 174 | 1.0 | 2.0 | 0.00 | 0.01 | 0.01 | 100 | 1064.2 |
| 20260509140206 | 67 | 86 | 1.0 | 2.0 | 0.00 | 0.01 | 0.01 | 100 | 1064.2 |
| 20260509135706 | 67 | 95 | 1.0 | 2.0 | 0.00 | 0.01 | 0.01 | 100 | 1063.9 |
| 20260509135206 | 67 | 161 | 0.0 | 0.0 | 0.00 | 0.01 | 0.01 | 100 | 1063.9 |
| 20260509134706 | 67 | 161 | 0.0 | 0.0 | 0.00 | 0.01 | 0.01 | 100 | 1063.8 |
| 20260509133707 | 67 | 161 | 0.0 | 0.0 | 0.00 | 0.01 | 0.01 | 100 | 1064.0 |
| 20260509133206 | 67 | 161 | 1.0 | 2.0 | 0.00 | 0.01 | 0.01 | 100 | 1064.0 |
| 20260509132707 | 67 | 101 | 0.0 | 1.0 | 0.00 | 0.01 | 0.01 | 100 | 1064.2 |
| 20260509131706 | 67 | 216 | 1.0 | 3.0 | 0.00 | 0.01 | 0.01 | 100 | 1064.2 |
| 20260509131206 | 67 | 60 | 3.0 | 5.0 | 0.00 | 0.01 | 0.01 | 99 | 1063.9 |
| 20260509124706 | 67 | 158 | 1.0 | 2.0 | 0.00 | 0.01 | 0.01 | 99 | 1062.6 |
| 20260509124206 | 67 | 98 | 1.0 | 2.0 | 0.00 | 0.01 | 0.01 | 99 | 1062.5 |
| 20260509123706 | 67 | 86 | 1.0 | 3.0 | 0.00 | 0.01 | 0.01 | 99 | 1062.3 |
| 20260509122706 | 67 | 277 | 0.0 | 2.0 | 0.00 | 0.01 | 0.01 | 99 | 1062.2 |
| 20260509122206 | 67 | 303 | 3.0 | 3.0 | 0.00 | 0.01 | 0.01 | 99 | 1061.7 |
| 20260509121706 | 67 | 215 | 1.0 | 3.0 | 0.00 | 0.01 | 0.01 | 99 | 1061.0 |
| 20260509121206 | 67 | 57 | 2.0 | 3.0 | 0.00 | 0.01 | 0.01 | 99 | 1060.9 |
| 20260509120706 | 67 | 231 | 0.0 | 2.0 | 0.00 | 0.01 | 0.01 | 99 | 1060.1 |
| 20260509120206 | 67 | 104 | 1.0 | 2.0 | 0.00 | 0.01 | 0.01 | 98 | 1059.3 |
| 20260509113706 | 71 | 180 | 1.0 | 3.0 | 0.00 | 0.01 | 0.01 | 98 | 1064.4 |
| 20260509113206 | 72 | 93 | 1.0 | 2.0 | 0.00 | 0.01 | 0.01 | 100 | 1065.4 |
| 20260509112206 | 72 | 56 | 0.0 | 0.0 | 0.00 | 0.01 | 0.01 | 100 | 1063.7 |
| 20260509111706 | 72 | 56 | 0.0 | 0.0 | 0.00 | 0.01 | 0.01 | 100 | 1063.5 |
| 20260509111206 | 72 | 56 | 0.0 | 0.0 | 0.00 | 0.01 | 0.01 | 100 | 1063.3 |
| 20260509110705 | 72 | 55 | 0.0 | 1.0 | 0.00 | 0.01 | 0.01 | 100 | 1063.0 |
| 20260509105706 | 72 | 29 | 0.0 | 2.0 | 0.00 | 0.01 | 0.01 | 100 | 1062.6 |
| 20260509104706 | 71 | 93 | 1.0 | 2.0 | 0.00 | 0.01 | 0.01 | 100 | 1062.6 |
| 20260509103705 | 71 | 84 | 0.0 | 3.0 | 0.00 | 0.01 | 0.01 | 100 | 1062.4 |
| 20260509103206 | 71 | 64 | 0.0 | 2.0 | 0.00 | 0.01 | 0.01 | 100 | 1062.3 |
| 20260509102706 | 71 | 51 | 0.0 | 1.0 | 0.00 | 0.01 | 0.01 | 100 | 1062.7 |
| 20260509102206 | 71 | 61 | 1.0 | 1.0 | 0.00 | 0.01 | 0.01 | 100 | 1062.8 |
| 20260509101706 | 71 | 343 | 0.0 | 0.0 | 0.00 | 0.01 | 0.01 | 100 | 1063.0 |
| 20260509100706 | 71 | 331 | 0.0 | 1.0 | 0.00 | 0.01 | 0.01 | 100 | 1062.5 |
| 20260509100206 | 71 | 320 | 0.0 | 0.0 | 0.00 | 0.01 | 0.01 | 100 | 1062.3 |
| 20260509095705 | 71 | 320 | 0.0 | 0.0 | 0.00 | 0.01 | 0.01 | 100 | 1062.2 |
| 20260509095206 | 71 | 320 | 0.0 | 0.0 | 0.00 | 0.01 | 0.01 | 100 | 1062.2 |
| 20260509094706 | 71 | 320 | 0.0 | 2.0 | 0.00 | 0.01 | 0.01 | 100 | 1062.1 |
| 20260509093706 | 71 | 39 | 0.0 | 1.0 | 0.00 | 0.01 | 0.01 | 99 | 1061.6 |
| 20260509093206 | 71 | 65 | 0.0 | 2.0 | 0.00 | 0.01 | 0.01 | 100 | 1061.7 |
| 20260509092206 | 71 | 356 | 1.0 | 2.0 | 0.00 | 0.01 | 0.01 | 99 | 1062.3 |
| 20260509091707 | 71 | 259 | 1.0 | 2.0 | 0.00 | 0.01 | 0.01 | 99 | 1062.5 |
| 20260509090705 | 71 | 60 | 1.0 | 2.0 | 0.00 | 0.01 | 0.01 | 100 | 1062.9 |
| 20260509090206 | 71 | 63 | 1.0 | 2.0 | 0.00 | 0.01 | 0.01 | 100 | 1063.1 |
| 20260509085706 | 71 | 96 | 1.0 | 3.0 | 0.00 | 0.01 | 0.01 | 100 | 1063.3 |
| 20260509085206 | 71 | 14 | 1.0 | 2.0 | 0.00 | 0.01 | 0.01 | 100 | 1063.5 |
| 20260509084705 | 71 | 55 | 1.0 | 2.0 | 0.00 | 0.01 | 0.01 | 100 | 1063.6 |
| 20260509083706 | 71 | 270 | 1.0 | 2.0 | 0.00 | 0.01 | 0.01 | 100 | 1063.9 |
| 20260509082705 | 71 | 77 | 1.0 | 2.0 | 0.00 | 0.01 | 0.01 | 100 | 1064.2 |
| 20260509082205 | 71 | 55 | 1.0 | 2.0 | 0.00 | 0.01 | 0.01 | 100 | 1064.5 |
| 20260509081706 | 71 | 66 | 1.0 | 3.0 | 0.00 | 0.01 | 0.01 | 100 | 1064.6 |
| 20260509081205 | 71 | 5 | 2.0 | 2.0 | 0.00 | 0.01 | 0.01 | 100 | 1064.8 |
| 20260509080705 | 71 | 21 | 1.0 | 2.0 | 0.00 | 0.01 | 0.01 | 100 | 1065.2 |
| 20260509080205 | 71 | 61 | 1.0 | 3.0 | 0.00 | 0.01 | 0.01 | 100 | 1065.3 |
| 20260509075205 | 71 | 63 | 2.0 | 5.0 | 0.00 | 0.01 | 0.01 | 99 | 1065.9 |
| 20260509074705 | 71 | 151 | 1.0 | 7.0 | 0.00 | 0.01 | 0.01 | 99 | 1066.2 |
| 20260509074206 | 71 | 78 | 3.0 | 8.0 | 0.00 | 0.01 | 0.01 | 99 | 1066.2 |
| 20260509073706 | 71 | 293 | 2.0 | 8.0 | 0.00 | 0.01 | 0.01 | 99 | 1066.4 |
| 20260509073205 | 71 | 116 | 1.0 | 5.0 | 0.00 | 0.01 | 0.01 | 99 | 1066.8 |
| 20260509072705 | 71 | 291 | 4.0 | 9.0 | 0.00 | 0.01 | 0.01 | 99 | 1066.5 |
| 20260509072205 | 71 | 78 | 2.0 | 5.0 | 0.00 | 0.01 | 0.01 | 99 | 1065.9 |
| 20260509071705 | 71 | 81 | 1.0 | 2.0 | 0.00 | 0.01 | 0.01 | 99 | 1066.3 |
| 20260509071206 | 71 | 273 | 0.0 | 0.0 | 0.00 | 0.01 | 0.01 | 99 | 1066.5 |
| 20260509070705 | 71 | 273 | 0.0 | 0.0 | 0.00 | 0.01 | 0.01 | 99 | 1066.3 |
| 20260509070205 | 70 | 273 | 0.0 | 1.0 | 0.00 | 0.01 | 0.01 | 99 | 1066.1 |